Other Public Products
Issued by NWS Charleston, SC

Current Version | Previous Version | Graphics & Text | Print | Product List | Glossary On
Versions: 1 2 3 4 5 6 7 8 9 10 11 12 13 14 15 16 17 18 19 20 21 22 23 24 25 26 27 28 29 30 31 32 33 34 35 36 37 38 39 40 41 42 43 44 45 46 47 48 49 50
000 FPUS82 KCHS 110826 OPUCHS TEST...KCHS/KSAV Gateway Observations...TEST National Weather Service Charleston SC 300 AM EST MON DEC 11 2017 NOTE: "fair" indicates few or no clouds below 12,000 feet with no significant weather and/or obstructions to visibility. SCZ050-WAZ558-NCZ071-TXZ119-213-PAZ071-DCZ001-FLZ074-172-MI076- NYZ176-178-MAZ016-IL014-TNZ027-NJZ106-GAZ044-MD014-110900- ...Gateway Observations for Charleston International... CITY SKY/WX TMP DP RH WIND PRES REMARKS Chas Airport CLEAR 35 29 78 SW6 30.23S WCI 30 Seattle CLEAR 34 32 92 CALM 30.31F Charlotte CLEAR 31 24 75 SW3 30.13F Dallas DFW CLEAR 43 24 47 S3 30.26S Dallas Love CLEAR 42 29 59 CALM 30.27S Philladelphia FLURRIES 35 27 72 SW10 30.04R WCI 27 Wash National CLOUDY 38 29 70 SW7 30.05R WCI 33 Baltimore CLOUDY 35 26 69 W3 30.03S Miami CLEAR 54 41 61 NW7 30.23F Detroit PTCLDY 26 20 77 NW7 30.03R WCI 18 Newark CLOUDY 34 23 64 SW9 29.99F WCI 27 Laguardia CLOUDY 37 21 52 SW10 29.98F WCI 30 J F K CLOUDY 36 26 67 W15 30.00F WCI 27 Boston Logan CLOUDY 33 24 69 SW10 29.93F WCI 25 Ft. Lauderdale CLEAR 50 40 68 NW7 30.22F Chicago O`Hare PTCLDY 24 17 74 CALM 30.04F Chicago Midway PTCLDY 27 19 72 CALM 30.05F Houston Bush PTCLDY 43 37 79 SW8 30.34S Houston Hobby PTCLDY 43 37 79 SW6 30.34S Nashville CLEAR 38 25 59 CALM 30.17S Atlanta CLEAR 33 28 81 SW3 30.21F $$ GAZ044-118-TXZ119-213-NCZ071-DCZ001-MDZ014-506-PAZ021-071-NJZ106- NYZ176-178-MAZ106-OHZ011-021-055-MIZ076-KYZ091-ILZ014-INZ047- MNZ060-ONZ431-110900- ...Gateway Observations for Savannah International... CITY SKY/WX TMP DP RH WIND PRES REMARKS Savannah Arpt CLEAR 33 29 85 W5 30.27F WCI 29 Atlanta CLEAR 33 28 81 SW3 30.21F Charlotte CLEAR 31 24 75 SW3 30.13F Dallas DFW CLEAR 43 24 47 S3 30.26S Houston Bush PTCLDY 43 37 79 SW8 30.34S Wash National CLOUDY 38 29 70 SW7 30.05R WCI 33 Wash Dulles CLOUDY 32 25 75 SE3 30.03R Baltimore CLOUDY 35 26 69 W3 30.03S Philadelphia FLURRIES 35 27 72 SW10 30.04R WCI 27 Newark CLOUDY 34 23 64 SW9 29.99F WCI 27 Laguardia CLOUDY 37 21 52 SW10 29.98F WCI 30 J F K CLOUDY 36 26 67 W15 30.00F WCI 27 Boston CLOUDY 33 24 69 SW10 29.93F WCI 25 Pittsburg CLOUDY 33 19 56 W6 29.97R WCI 28 Akron CLOUDY 30 20 66 W8 29.98R WCI 22 Cleveland FLURRIES 31 23 72 NW9 30.01R WCI 23 Cincinnati CLEAR 28 22 78 W6 30.08S WCI 22 Columbus CLOUDY 31 22 70 NW6 30.06R WCI 26 Detroit PTCLDY 26 20 77 NW7 30.03R WCI 18 Chicago O`Hare PTCLDY 24 17 74 CALM 30.04F Minneapolis LGT SNOW 25 25 100 S7 29.86F FOG WCI 17 Indianapolis CLEAR 24 19 81 W5 30.09S WCI 18 Toronto Canada CLOUDY 21 16 79 N13 29.93R WCI 9 $$

USA.gov is the U.S. government's official web portal to all federal, state and local government web resources and services.